GW2624 Weather Reports


time (UTC)temp
C
wind
direction
speed
KPH
gust
KPH
rain 1hr
cm
rain 24hr
cm
rain mn
cm
humidity
%
barometer
mb
20260510161404 19 12 1.6 9.7 0.00 0.00 0.00 32 1008.7
20260510155905 18 191 1.6 8.0 0.00 0.00 0.00 32 1008.7
20260510155404 18 213 3.2 9.7 0.00 0.00 0.00 32 1008.8
20260510154904 18 240 3.2 9.7 0.00 0.00 0.00 31 1008.7
20260510154405 18 222 3.2 8.0 0.00 0.00 0.00 33 1008.7
20260510153405 18 9 1.6 12.9 0.00 0.00 0.00 33 1008.7
20260510152905 18 199 3.2 12.9 0.00 0.00 0.00 32 1008.7
20260510152405 18 150 1.6 4.8 0.00 0.00 0.00 32 1008.7
20260510151405 17 218 3.2 4.8 0.00 0.00 0.00 31 1008.6
20260510142905 15 247 1.6 4.8 0.00 0.00 0.00 34 1008.2
20260510140905 13 221 0.0 4.8 0.00 0.00 0.00 39 1008.0
20260510135404 12 209 0.0 3.2 0.00 0.00 0.00 50 1007.8
20260510134904 11 146 1.6 3.2 0.00 0.00 0.00 48 1007.8
20260510133904 11 146 1.6 3.2 0.00 0.00 0.00 54 1007.8
20260510133405 11 0 1.6 3.2 0.00 0.00 0.00 54 1007.8
20260510132404 11 0 0.0 3.2 0.00 0.00 0.00 50 1007.8
20260510131904 11 146 0.0 0.0 0.00 0.00 0.00 49 1007.7
20260510131405 11 146 0.0 3.2 0.00 0.00 0.00 49 1007.7
20260510130904 11 146 0.0 3.2 0.00 0.00 0.00 48 1007.5
20260510125405 11 146 0.0 3.2 0.00 0.00 0.00 45 1007.3
20260510123905 12 146 0.0 0.0 0.00 0.00 0.00 44 1007.2
20260510115904 14 0 0.0 1.6 0.00 0.00 0.00 35 1006.9
20260510114905 15 0 0.0 3.2 0.00 0.00 0.00 33 1006.8
20260510114404 15 0 1.6 4.8 0.00 0.00 0.00 33 1006.9
20260510113904 15 0 1.6 4.8 0.00 0.00 0.00 32 1006.8
20260510110404 14 0 3.2 4.8 0.00 0.00 0.00 32 1006.4
20260510104904 13 0 0.0 3.2 0.00 0.00 0.00 36 1006.2
20260510104404 13 0 0.0 3.2 0.00 0.00 0.00 36 1006.1
20260510103905 14 0 1.6 3.2 0.00 0.00 0.00 35 1006.1
20260510103405 14 0 0.0 4.8 0.00 0.00 0.00 34 1006.0
20260510102904 14 0 1.6 4.8 0.00 0.00 0.00 35 1006.0
20260510102404 14 0 3.2 4.8 0.00 0.00 0.00 33 1005.8
20260510101405 14 0 0.0 8.0 0.00 0.00 0.00 34 1006.0
20260510100904 13 0 3.2 8.0 0.00 0.00 0.00 33 1006.0
20260510095904 13 0 4.8 8.0 0.00 0.00 0.00 39 1005.9
20260510095405 12 0 3.2 4.8 0.00 0.00 0.00 40 1005.8
20260510094904 12 0 3.2 4.8 0.00 0.00 0.00 41 1005.7
20260510094405 12 0 1.6 4.8 0.00 0.00 0.00 40 1005.6
20260510092906 11 136 0.0 3.2 0.00 0.00 0.00 44 1005.7
20260510091905 11 136 0.0 4.8 0.00 0.00 0.00 45 1005.5
20260510091405 11 136 0.0 4.8 0.00 0.00 0.00 48 1005.2
20260510090904 11 136 1.6 4.8 0.00 0.00 0.00 44 1005.1
20260510085404 11 136 0.0 3.2 0.00 0.00 0.00 46 1005.4
20260510084404 11 136 0.0 0.0 0.00 0.00 0.00 46 1005.4
20260510083405 11 136 0.0 0.0 0.00 0.00 0.00 46 1005.4
20260510082904 11 136 0.0 0.0 0.00 0.00 0.00 44 1005.3
20260510081904 11 136 0.0 0.0 0.00 0.00 0.00 45 1005.2
20260510081405 11 136 0.0 3.2 0.00 0.00 0.00 44 1005.2
20260510080904 11 136 0.0 3.2 0.00 0.00 0.00 44 1005.1
20260510075905 11 136 0.0 0.0 0.00 0.00 0.00 45 1005.1
20260510073404 11 136 0.0 3.2 0.00 0.00 0.00 41 1005.2
20260510072905 11 136 1.6 3.2 0.00 0.00 0.00 41 1005.2
20260510072404 11 136 0.0 3.2 0.00 0.00 0.00 41 1005.2
20260510071905 12 136 1.6 3.2 0.00 0.00 0.00 41 1005.2
20260510070404 12 136 0.0 3.2 0.00 0.00 0.00 38 1005.0
20260510065905 12 136 0.0 0.0 0.00 0.00 0.00 39 1005.0
20260510065404 12 136 0.0 0.0 0.00 0.00 0.00 40 1005.1
20260510063404 13 136 0.0 0.0 0.00 0.00 0.00 34 1005.1
20260510062904 13 136 0.0 0.0 0.00 0.00 0.00 34 1005.0
20260510062404 13 136 0.0 0.0 0.00 0.00 0.00 34 1005.0
20260510061404 13 136 0.0 3.2 0.00 0.00 0.00 33 1004.9
20260510054904 15 94 0.0 0.0 0.00 0.00 0.00 29 1004.7
20260510054404 15 94 0.0 0.0 0.00 0.00 0.00 29 1004.7
20260510053404 16 94 0.0 4.8 0.00 0.00 0.00 26 1004.7
20260510052905 16 94 1.6 4.8 0.00 0.00 0.00 26 1004.7
20260510051404 17 142 0.0 1.6 0.00 0.00 0.00 25 1004.9
20260510050404 17 142 0.0 0.0 0.00 0.00 0.00 25 1004.9
20260510045905 17 142 0.0 0.0 0.00 0.00 0.00 24 1004.8
20260510043904 17 111 1.6 4.8 0.00 0.00 0.00 26 1004.8
20260510042904 16 153 1.6 3.2 0.00 0.00 0.00 26 1004.8
20260510042404 16 153 0.0 1.6 0.00 0.00 0.00 26 1004.8
20260510041904 17 153 0.0 4.8 0.00 0.00 0.00 25 1004.7
20260510041405 17 153 1.6 4.8 0.00 0.00 0.00 23 1004.7
20260510040405 17 141 0.0 0.0 0.00 0.00 0.00 22 1004.5
20260510034405 18 141 0.0 3.2 0.00 0.00 0.00 19 1004.5
20260510033904 18 141 0.0 3.2 0.00 0.00 0.00 19 1004.4
20260510033404 18 141 0.0 1.6 0.00 0.00 0.00 18 1004.4
20260510032905 19 141 0.0 1.6 0.00 0.00 0.00 19 1004.3
20260510031404 19 141 0.0 1.6 0.00 0.00 0.00 18 1004.0
20260510030904 20 141 0.0 3.2 0.00 0.00 0.00 17 1003.9
20260510025405 20 141 0.0 1.6 0.00 0.00 0.00 16 1003.6
20260510023904 21 141 0.0 3.2 0.00 0.00 0.00 14 1003.2
20260510022905 21 155 0.0 3.2 0.00 0.00 0.00 13 1003.1
20260510021405 22 152 0.0 4.8 0.00 0.00 0.00 13 1002.9
20260510020904 22 128 1.6 3.2 0.00 0.00 0.00 13 1002.8
20260510020404 22 152 0.0 4.8 0.00 0.00 0.00 13 1002.7
20260510015904 22 152 1.6 11.3 0.00 0.00 0.00 13 1002.7
20260510014904 23 251 1.6 4.8 0.00 0.00 0.00 14 1002.6
20260510014404 23 193 1.6 11.3 0.00 0.00 0.00 13 1002.4
20260510012404 23 120 4.8 19.3 0.00 0.00 0.00 12 1002.3
20260510011404 23 200 3.2 4.8 0.00 0.00 0.00 12 1002.2
20260510010904 23 228 3.2 11.3 0.00 0.00 0.00 12 1002.2
20260510010404 23 275 1.6 11.3 0.00 0.00 0.00 12 1002.1
20260510005904 24 204 3.2 11.3 0.00 0.00 0.00 12 1002.2
20260510004404 24 341 3.2 19.3 0.00 0.00 0.00 11 1002.1
20260510002904 25 260 3.2 14.5 0.00 0.00 0.00 11 1002.2
20260510002404 25 253 4.8 14.5 0.00 0.00 0.00 11 1002.0
20260510000904 25 263 3.2 19.3 0.00 0.00 0.00 12 1001.9
20260510000404 25 306 3.2 19.3 0.00 0.00 0.00 12 1002.0
20260509235904 25 241 8.0 19.3 0.00 0.00 0.00 12 1001.9
20260509234904 25 206 4.8 19.3 0.00 0.00 0.00 12 1001.8
20260509234404 25 251 8.0 20.9 0.00 0.00 0.00 11 1001.8
20260509232403 26 252 6.4 19.3 0.00 0.00 0.00 12 1001.6
20260509231904 26 269 4.8 19.3 0.00 0.00 0.00 12 1001.6
20260509231404 25 261 1.6 12.9 0.00 0.00 0.00 12 1001.7
20260509230904 26 271 6.4 19.3 0.00 0.00 0.00 11 1001.6
20260509230404 26 258 6.4 19.3 0.00 0.00 0.00 11 1001.6
20260509224404 27 313 4.8 25.7 0.00 0.00 0.00 10 1001.5
20260509223404 27 357 4.8 19.3 0.00 0.00 0.00 12 1001.5
20260509222404 26 227 6.4 19.3 0.00 0.00 0.00 11 1001.7
20260509221403 26 250 8.0 20.9 0.00 0.00 0.00 11 1001.9
20260509215904 27 281 4.8 12.9 0.00 0.00 0.00 13 1001.9
20260509214404 25 243 4.8 12.9 0.00 0.00 0.00 12 1002.1
20260509212904 25 302 4.8 14.5 0.00 0.00 0.00 13 1002.5
20260509211904 26 299 4.8 14.5 0.00 0.00 0.00 12 1002.7
20260509210404 26 278 3.2 14.5 0.00 0.00 0.00 13 1002.8
20260509205904 26 251 4.8 14.5 0.00 0.00 0.00 13 1002.8
20260509205405 26 269 3.2 8.0 0.00 0.00 0.00 14 1002.9
20260509204905 26 227 1.6 8.0 0.00 0.00 0.00 14 1003.0
20260509203904 25 319 4.8 19.3 0.00 0.00 0.00 14 1003.0
20260509202904 25 247 3.2 11.3 0.00 0.00 0.00 14 1003.3
20260509201404 26 244 3.2 11.3 0.00 0.00 0.00 14 1003.4
20260509200904 26 288 3.2 4.8 0.00 0.00 0.00 13 1003.5
20260509194404 26 223 3.2 12.9 0.00 0.00 0.00 14 1003.7
20260509193405 27 309 3.2 11.3 0.00 0.00 0.00 13 1003.7
20260509192904 26 314 4.8 11.3 0.00 0.00 0.00 14 1003.8
20260509192404 26 239 3.2 16.1 0.00 0.00 0.00 14 1003.9
20260509191904 26 332 4.8 16.1 0.00 0.00 0.00 14 1004.0
20260509191404 26 197 1.6 11.3 0.00 0.00 0.00 13 1004.1
20260509190404 26 254 3.2 9.7 0.00 0.00 0.00 13 1004.2
20260509185404 26 65 3.2 9.7 0.00 0.00 0.00 14 1004.4
20260509183404 26 224 3.2 11.3 0.00 0.00 0.00 13 1004.7
20260509182904 26 24 3.2 11.3 0.00 0.00 0.00 14 1004.8
20260509180904 26 298 3.2 11.3 0.00 0.00 0.00 15 1005.1
20260509180404 26 336 1.6 16.1 0.00 0.00 0.00 16 1005.1
20260509175904 25 257 3.2 16.1 0.00 0.00 0.00 17 1005.2
20260509175403 25 276 3.2 12.9 0.00 0.00 0.00 16 1005.3
20260509174904 25 317 3.2 11.3 0.00 0.00 0.00 16 1005.3
20260509172404 25 17 1.6 19.3 0.00 0.00 0.00 15 1005.8
20260509171904 25 310 4.8 11.3 0.00 0.00 0.00 15 1006.0
20260509170904 25 309 4.8 12.9 0.00 0.00 0.00 16 1006.1
20260509170404 25 318 4.8 9.7 0.00 0.00 0.00 16 1006.2
20260509164904 24 15 3.2 11.3 0.00 0.00 0.00 15 1006.1
20260509163904 24 324 3.2 11.3 0.00 0.00 0.00 16 1006.1
20260509163405 23 241 3.2 11.3 0.00 0.00 0.00 17 1005.9
20260509162904 23 256 3.2 8.0 0.00 0.00 0.00 19 1006.0
20260509162405 23 291 3.2 8.0 0.00 0.00 0.00 18 1005.9